Regional Weather Roundup
Issued by NWS

Home | Current Version | Previous Version | Text Only | Print | Product List | Glossary Off
Versions: 1 2 3 4 5 6 7 8 9 10 11 12 13 14 15 16 17 18 19 20 21 22 23 24 25 26 27 28 29 30 31 32 33 34 35 36 37 38 39 40 41 42 43 44 45 46 47 48 49 50

082
ASUS43 KBIS 211102
RWRND

NORTH DAKOTA REGIONAL WEATHER ROUNDUP
NATIONAL WEATHER SERVICE BISMARCK ND
500 AM CST SAT JAN 21 2017

NOTE: "FAIR" INDICATES FEW OR NO CLOUDS BELOW 12,000 FEET WITH NO
SIGNIFICANT WEATHER AND/OR OBSTRUCTIONS TO VISIBILITY.


NDZ001>003-009>011-017-211200-
NORTHWEST NORTH DAKOTA

CITY           SKY/WX    TMP DP  RH WIND       PRES   REMARKS
WILLISTON      CLOUDY    27  24  89 SW3       29.30S
MINOT          CLOUDY    27  26  96 CALM      29.30R FOG
MINOT AFB      CLOUDY    26  24  95 CALM      29.30S FOG
$$

NDZ018>021-031>035-040>046-211200-
SOUTHWEST NORTH DAKOTA

CITY           SKY/WX    TMP DP  RH WIND       PRES   REMARKS
BISMARCK       CLOUDY    30  28  92 NW3       29.32S
DICKINSON      CLOUDY    30  26  85 W15       29.27R WCI  19
GARRISON         N/A     24  22  91 CALM      29.29F
HETTINGER ARPT CLOUDY    31  27  85 W16       29.31R WCI  20
$$

NDZ004>008-012>016-024-026-027-054-211200-
NORTHEAST NORTH DAKOTA

CITY           SKY/WX    TMP DP  RH WIND       PRES   REMARKS
GRAND FORKS    CLOUDY    35  32  88 SE8       29.39F
GRND FRKS AFB  CLOUDY    34  33  99 SE8       29.38F
DEVILS LAKE    MIX PCPN  33  33 100 SE10      29.33F VSB 3/4
$$

NDZ022-023-025-028>030-036>039-047>053-211200-
SOUTHEAST NORTH DAKOTA

CITY           SKY/WX    TMP DP  RH WIND       PRES   REMARKS
FARGO          CLOUDY    38  35  89 SE14      29.38F FOG
JAMESTOWN      FOG       33  33 100 SE14      29.32R VSB 1/4
$$





USA.gov is the U.S. government's official web portal to all federal, state and local government web resources and services.